User: anonymous   Login
Location: Castro Valley
(37.6940°N, 122.0850°W)
Time: 13:35:03
(UTC-08:00)
Language:

PANSAT - Orbit

View from above orbital plane
View from above orbital plane
View from above satellite
View from above satellite

Ground track
Ground track

The orbit data is extracted from the following two-line orbital elements,

1 25520U 98064B   15064.91805654  .00004285  00000-0  15597-3 0  9994
2 25520 028.4572 257.6965 0004463 106.7881 036.5115 15.25530221906611
Epoch (UTC): 05 March 2015 22:02:00
Eccentricity: 0.0004463
inclination: 28.4572°
perigee height: 486 km
apogee height: 492 km
right ascension of ascending node: 257.6965°
argument of perigee: 106.7881°
revolutions per day: 15.25530221
mean anomaly at epoch: 36.5115°
orbit number at epoch: 90661

The dashed part of the orbit path shows where the satellite is in the earth's shadow,  

DLR